Погода в Долгом

Россия / Белгородская область     50°15′53″N   38°29′50″E
темп.,
°C
ветер,
м/с
пор.,
м/с
влажн.,
%
обл.,
%
осадки,
мм/ч
давл.,
гПа
погр.,
м
24 июля, сб
сб2400:00+16сз22670 0.0 101227
03:00+15сз22740 0.0 101225
06:00+16сз247476 0.0 101379
09:00+19зсз2469100 0.0 1013197
12:00+25зсз45477 0.0 10131552
15:00+25ссз5649100 0.0 10131993
18:00+19зюз227299 0.1 101542
21:00+18с22755 0.1 101615
25 июля, вс
вс2500:00+17ссв33660 0.0 101732
03:00+15ссв22704 0.0 101819
06:00+16св357599 0.0 1020124
09:00+19св346579 0.0 1021242
12:00+24св33410 0.0 10211593
15:00+25с33381 0.0 10201995
18:00+24ссз34470 0.0 1021736
21:00+18с36610 0.0 102289
26 июля, пн
пн2600:00+16всв48690 0.0 1023120
03:00+15всв48640 0.0 1023115
06:00+15всв37670 0.0 1024127
09:00+21всв56510 0.0 1024487
12:00+25всв55410 0.0 10231419
15:00+27всв44370 0.0 10221950
18:00+26св45440 0.0 1021436
21:00+20всв49580 0.0 1023151
27 июля, вт
вт2700:00+18всв4125729 0.0 1023231
03:00+17всв411530 0.0 1023194
06:00+17всв49590 0.0 1023153
09:00+23в564617 0.0 1023508
12:00+26в45380 0.0 10231340
15:00+28в33367 0.0 10211730
18:00+27всв22420 0.0 1021937
21:00+21всв22520 0.0 102115
28 июля, ср
ср2800:00+19в335359 0.0 102238
03:00+19в2248100 0.0 102128
06:00+19в225436 0.0 102126
09:00+24вюв34435 0.0 1020390
12:00+28юв22375 0.0 10191455
15:00+29ююз23340 0.0 10182531
18:00+29в23385 0.0 1016439
21:00+23вюв484982 0.0 1015135